Location: Bílinka
(49.3579°N, 14.3767°E)
Time: 08:57:41
(UTC+00:00)

FENGYUN 1C DEB - Pass Details

Date: 23 February 2024
Orbit: 850 x 890 km, 98.8° (Epoch: 12 April)

Event Time Altitude Azimuth Distance (km) Brightness Sun altitude
Rises 18:53:44 0° 194° (SSW) 3,404 ? -23.3°
Reaches altitude 10° 18:56:22 10° 204° (SSW) 2,476 ? -23.7°
Maximum altitude 19:01:10 31° 266° (W) 1,473 ? -24.4°
Drops below altitude 10° 19:06:03 10° 327° (NNW) 2,507 ? -25.2°
Sets 19:08:44 0° 338° (NNW) 3,455 ? -25.6°
